Regional Weather Roundup
Issued by NWS

Home | Current Version | Previous Version | Graphics & Text | Print | Product List | Glossary On
Versions: 1 2 3 4 5 6 7 8 9 10 11 12 13 14 15 16 17 18 19 20 21 22 23 24 25 26 27
000
ASUS45 KSLC 221210
RWRUT

UTAH REGIONAL WEATHER ROUNDUP
NATIONAL WEATHER SERVICE SALT LAKE CITY UT
600 AM MDT MON MAY 22 2017

UTZ001>011-023>025-221300-

NORTHERN UTAH

CITY           SKY/WX    TMP DP  RH WIND       PRES   REMARKS
BRIGHAM CITY   CLEAR     46  41  85 CALM      30.25S
HILL AFB       CLEAR     47  39  75 E15       30.25S
LOGAN          CLEAR     44  40  85 CALM      30.26S
OGDEN          CLEAR     46  40  79 S7        30.24R
SALT LAKE CITY PTCLDY    51  44  77 SE7       30.24R
TOOELE VALLEY  CLEAR     43  41  93 S10       30.25R
WENDOVER       PTCLDY    51  41  68 CALM      30.24S
HEBER CITY     PTCLDY    34  34 100 CALM      30.29S FOG
WEST JORDAN    CLEAR     47  47 100 SW6       30.26R

$$

UTZ011>015-024>027-221300-

CENTRAL/NORTHEAST UTAH

CITY           SKY/WX    TMP DP  RH WIND       PRES   REMARKS
PROVO AIRPORT  CLEAR     43  38  82 S3        30.27R
MOAB/CANYONLAN CLEAR     43  41  93 CALM      30.19R
DELTA          CLEAR     43  39  87 E5        30.25S
PRICE          CLEAR     42  37  82 NE3       30.24S
ROOSEVELT      CLEAR     37  34  87 SW6       30.28S WCI  33
VERNAL         CLEAR     36  32  85 SW3       30.26S

$$

UTZ013>016-019>022-027-221300-

SOUTHERN UTAH

CITY           SKY/WX    TMP DP  RH WIND       PRES   REMARKS
BRYCE CANYON   CLEAR     26  24  92 SW3       30.31S
CEDAR CITY     CLEAR     39  33  79 CALM      30.24S
MILFORD        CLEAR     41  37  86 S3        30.24S
ST GEORGE      SUNNY     66  39  37 E10       30.10R
HANKSVILLE     CLEAR     36  32  87 CALM      30.23S
BLANDING       CLEAR     38  32  78 NW5       30.28R WCI  34

$$

REGIONAL REPORTS     COLORADO/ARIZONA

CITY           SKY/WX    TMP DP  RH WIND       PRES   REMARKS
CRAIG, CO      FOG       32  30  92 CALM      30.28F VSB 1/4
GRAND JUNCTION CLEAR     45  40  82 E3        30.21S
RIFLE, CO      MOCLDY    41  38  89 E3        30.25R
MONTROSE, CO   CLEAR     41  39  93 S3        30.25S
CORTEZ, CO     CLEAR     35  33  92 NE7       30.20S WCI  29
COLORADO CITY    N/A     50  36  57 CALM      30.21S
PAGE, AZ       CLEAR     56  41  57 CALM      30.16R
GRAND CANYON   CLEAR     35  30  82 CALM      30.25R
KINGMAN, AZ    CLEAR     61  27  27 MISG      30.03S
FLAGSTAFF, AZ  CLEAR     35  27  72 CALM      30.25R

$$

REGIONAL REPORTS    NEVADA/IDAHO/WYOMING

CITY           SKY/WX    TMP DP  RH WIND       PRES   REMARKS
LAS VEGAS, NV  PTCLDY    77  35  21 NE9       29.99R
ELY, NY        CLEAR     32  29  88 S10       30.31S WCI  24
ELKO, NV       MOCLDY    44  38  79 CALM      30.27S
POCATELLO, ID  PTCLDY    42  39  89 CALM      30.26R
BURLEY, ID     PTCLDY    47  41  80 SW5       30.23S
EVANSTON, WY   CLEAR     38  37  97 SW5       30.31S WCI  34
ROCK SPRINGS,  CLOUDY    35  32  88 NW6       30.29S WCI  30
KEMMERER, WY     N/A     34  32  93 NW8       30.31S WCI  27

$$




USA.gov is the U.S. government's official web portal to all federal, state and local government web resources and services.